"Pseudo-MPEC" for C1CP2K5

Created 2026 Mar 11 16:35:12 UT using Find_Orb

Click here for an explanation of pseudo-MPECs

 
 Astrometry: 
     C1CP2K5*1C2026 02 26.46919112 18 55.530+29 45 49.50   ~2QDK 22.36GVNEOCPV00
     C1CP2K5 1C2026 02 26.47481212 18 54.774+29 45 33.37   ~2QDK 22.87GVNEOCPV00
     C1CP2K5 1C2026 02 26.48040112 18 53.968+29 45 16.16   ~2QDK 22.08GVNEOCPV00
     C1CP2K5 1C2026 02 26.48598612 18 53.186+29 44 59.78   ~2QDK 21.94GVNEOCPV00
     C1CP2K5 1C2026 02 27.46742912 16 42.128+28 55 52.36   ~2RBZ 22.40GVNEOCPV00
     C1CP2K5 1C2026 02 27.46937512 16 41.812+28 55 45.70   ~2RBZ 22.42GVNEOCPV00
     C1CP2K5 1C2026 02 27.47132112 16 41.531+28 55 39.90   ~2RBZ 22.23GVNEOCPV00
     C1CP2K5 1C2026 02 27.47326612 16 41.264+28 55 33.74   ~2RBZ 22.40GVNEOCPV00
     C1CP2K5  C2026 02 28.39622612 14 33.817+28 07 16.93   ~2SAK 22.9 GWNEOCPH01
     C1CP2K5  C2026 02 28.40132012 14 33.051+28 07 00.62   ~2SAK 22.2 GWNEOCPH01
     C1CP2K5  C2026 02 28.41000312 14 31.737+28 06 32.63   ~2SAK 22.1 GWNEOCPH01
     C1CP2K5  C2026 02 28.41695512 14 30.667+28 06 10.17   ~2SAK 22.8 GWNEOCPH01

Station data:
(H01) Magdalena Ridge Observatory, Socorro  (N33.984833 W107.189333)  US/New
   Mexico.  Observers W. H. Ryan, E. V. Ryan. Measurer W. H. Ryan. 2.4-m
   f/8.9 reflector + CCD.
(V00) Kitt Peak-Bok  (N31.963125 W111.600190)  US/Arizona. Measurers T.
   Beuden, V. F. Carvajal, D. Fay, J. B. Fazekas, D. C. Fuls, A. R. Gibbs, A.
   D. Grauer, H. Gröller, J. K. Hogan, R. A. Kowalski, S. M. Larson, G. J.
   Leonard, D. Rankin, R. L. Seaman, F. C. Shelly, K. W. Wierzchoś. 2.25-m
   reflector + 4x4K mosaic CCD.

Orbital elements:  C1CP2K5
   Perihelion 2026 Mar 21.018223 +/- 2.41 TT =  0:26:14.4 (JD 2461120.518223)
Epoch 2026 Feb 28.0 TT = JDT 2461099.5   Earth MOID: 0.2656      AutoNEOCP
M 353.956351861 +/- 1.2             (J2000 ecliptic)
n   0.287543252 +/- 0.0943          Peri.  181.186185 +/- 2.0
a   2.273355012 +/- 0.497           Node   356.608830 +/- 0.27
e   0.44540138 +/- 0.106            Incl.   24.435347 +/- 3.2
P   3.42768                H 23.49  G  0.15   U 11.2
q 1.260799530 +/- 0.0347    Q 3.285910495 +/- 0.959
From 12 observations 2026 Feb. 26-28 (46.7 hr); mean residual 0".17
Residuals in arcseconds: 
260226 V00  .18-  .19-    260227 V00  .21+  .38+    260228 H01  .04-  .05-    
260226 V00  .26+  .37+    260227 V00  .21-  .23-    260228 H01  .06+  .03+    
260226 V00  .02-  .23-    260227 V00  .17-  .02+    260228 H01  .12+  .01+    
260226 V00  .01-  .01+    260227 V00  .05+  .09-    260228 H01  .08-  .02-    

Ephemerides (geocentric):
Date (UTC) HH   RA             Dec           delta  r     elong  mag " sig PA
---- --------  ------------   ------------  ------ ------ -----  --- --------
2026 03 11 17  11 43 36.741   +15 28 41.50  .27612 1.2644 167.4 21.8  136   1
2026 03 11 18  11 43 29.238   +15 25 22.08  .27603 1.2644 167.5 21.8  137   1
2026 03 11 19  11 43 21.732   +15 22 02.48  .27594 1.2643 167.5 21.8  138   1
2026 03 11 20  11 43 14.225   +15 18 42.69  .27584 1.2643 167.6 21.8  140   1
2026 03 11 21  11 43 06.715   +15 15 22.70  .27575 1.2643 167.7 21.8  141   1
2026 03 11 22  11 42 59.203   +15 12 02.53  .27566 1.2642 167.7 21.8  143   2
2026 03 11 23  11 42 51.689   +15 08 42.17  .27557 1.2642 167.8 21.8  144   2
2026 03 12 00  11 42 44.173   +15 05 21.62  .27548 1.2642 167.8 21.8  145   2
2026 03 12 01  11 42 36.655   +15 02 00.89  .27539 1.2641 167.9 21.8  147   2
2026 03 12 02  11 42 29.135   +14 58 39.97  .27530 1.2641 168.0 21.8  148   2
2026 03 12 03  11 42 21.613   +14 55 18.86  .27521 1.2641 168.0 21.8  150   2
2026 03 12 04  11 42 14.089   +14 51 57.58  .27512 1.2640 168.1 21.8  151   2
2026 03 12 05  11 42 06.563   +14 48 36.10  .27503 1.2640 168.1 21.8  153   2
2026 03 12 06  11 41 59.035   +14 45 14.45  .27494 1.2640 168.2 21.8  154   3
2026 03 12 07  11 41 51.505   +14 41 52.61  .27486 1.2640 168.2 21.8  156   3
2026 03 12 08  11 41 43.973   +14 38 30.60  .27477 1.2639 168.3 21.8  157   3
2026 03 12 09  11 41 36.440   +14 35 08.40  .27468 1.2639 168.4 21.8  159   3
2026 03 12 10  11 41 28.905   +14 31 46.02  .27460 1.2639 168.4 21.8  160   3
2026 03 12 11  11 41 21.368   +14 28 23.47  .27451 1.2638 168.5 21.8  162   3
2026 03 12 12  11 41 13.829   +14 25 00.74  .27443 1.2638 168.5 21.8  164   3
2026 03 12 13  11 41 06.289   +14 21 37.83  .27435 1.2638 168.6 21.8  165   3
2026 03 12 14  11 40 58.747   +14 18 14.74  .27426 1.2637 168.6 21.8  167   4
2026 03 12 15  11 40 51.204   +14 14 51.48  .27418 1.2637 168.7 21.8  168   4
2026 03 12 16  11 40 43.659   +14 11 28.05  .27410 1.2637 168.8 21.8  170   4
2026 03 12 17  11 40 36.112   +14 08 04.44  .27402 1.2637 168.8 21.8  172   4
2026 03 12 18  11 40 28.564   +14 04 40.66  .27393 1.2636 168.9 21.8  173   4
2026 03 12 19  11 40 21.014   +14 01 16.70  .27385 1.2636 168.9 21.8  175   4
2026 03 12 20  11 40 13.463   +13 57 52.58  .27377 1.2636 169.0 21.8  177   4
2026 03 12 21  11 40 05.911   +13 54 28.29  .27369 1.2635 169.0 21.8  178   4
2026 03 12 22  11 39 58.357   +13 51 03.82  .27362 1.2635 169.1 21.8  180   4
2026 03 12 23  11 39 50.802   +13 47 39.19  .27354 1.2635 169.1 21.8  182   5
2026 03 13 00  11 39 43.245   +13 44 14.39  .27346 1.2635 169.2 21.8  183   5
2026 03 13 01  11 39 35.688   +13 40 49.42  .27338 1.2634 169.2 21.8  185   5
2026 03 13 02  11 39 28.129   +13 37 24.29  .27330 1.2634 169.3 21.8  187   5
2026 03 13 03  11 39 20.569   +13 33 58.99  .27323 1.2634 169.3 21.8  189   5
2026 03 13 04  11 39 13.007   +13 30 33.53  .27315 1.2634 169.4 21.8  190   5
2026 03 13 05  11 39 05.445   +13 27 07.90  .27308 1.2633 169.5 21.8  192   5
2026 03 13 06  11 38 57.881   +13 23 42.12  .27300 1.2633 169.5 21.7  194   5
2026 03 13 07  11 38 50.316   +13 20 16.17  .27293 1.2633 169.6 21.7  196   5
2026 03 13 08  11 38 42.751   +13 16 50.06  .27286 1.2632 169.6 21.7  197   6
2026 03 13 09  11 38 35.184   +13 13 23.79  .27278 1.2632 169.7 21.7  199   6
2026 03 13 10  11 38 27.616   +13 09 57.36  .27271 1.2632 169.7 21.7  201   6
2026 03 13 11  11 38 20.048   +13 06 30.77  .27264 1.2632 169.8 21.7  203   6
2026 03 13 12  11 38 12.478   +13 03 04.02  .27257 1.2631 169.8 21.7  205   6
2026 03 13 13  11 38 04.907   +12 59 37.12  .27250 1.2631 169.9 21.7  207   6
2026 03 13 14  11 37 57.336   +12 56 10.07  .27243 1.2631 169.9 21.7  208   6
2026 03 13 15  11 37 49.764   +12 52 42.86  .27236 1.2631 170.0 21.7  210   6
2026 03 13 16  11 37 42.191   +12 49 15.49  .27229 1.2630 170.0 21.7  212   6